Location: Follega
(52.8850°N, 5.7362°E)
Time: 20:07:28
(UTC+00:00)

Cosmos 1553 Rocket - Pass Details

Date: 01 June 2020
Orbit: 940 x 1009 km, 82.9° (Epoch: 13 July)

Event Time Altitude Azimuth Distance (km) Brightness Sun altitude
Rises 21:57:54 0° 349° (N) 3,722 8.9 -12.0°
Reaches altitude 10° 22:00:27 10° 350° (N) 2,760 7.8 -12.1°
Maximum altitude 22:06:48 87° 81° (E) 984 4.0 -12.5°
Enters shadow 22:11:47 17° 170° (S) 2,245 5.3 -12.8°
